Weather History for Winner, SD

Change the Weather History Date:

Monday, January 6, 2014

  Actual Average Record
Temperature  
Mean Temperature 0 °F 24 °F  
Max Temperature 8 °F 35 °F 49 °F (2012)
Min Temperature -9 °F 14 °F -9 °F (2014)
Degree Days  
Heating Degree Days 65 40  
Month to date heating degree days 315 245  
Since 1 July heating degree days 3156 2951  
Cooling Degree Days 0 0  
Month to date cooling degree days 0 0  
Year to date cooling degree days 0 0  
Moisture  
Dew Point -13 °F    
Average Humidity 59    
Maximum Humidity 68    
Minimum Humidity 49    
Precipitation  
Precipitation T in 0.01 in 0.00 in (2015)
Month to date precipitation 0.02 0.05  
Year to date precipitation 0.02 0.05  
Sea Level Pressure  
Sea Level Pressure 30.47 in    
Wind  
Wind Speed 15 mph (NW)    
Max Wind Speed 30 mph    
Max Gust Speed 37 mph    
Visibility 10 miles    
Events Snow    
T = Trace of Precipitation, MM = Missing Value Source: NWS Daily Summary

Daily Weather History Graph

Daily Weather History Graph

Search for Another Location

Airport:

Trip Planner

Search our weather history database for the weather conditions in past years. The results will help you decide how hot, cold, wet, or windy it might be!

Date:

Astronomy

Jan. 06, 2014 Rise Set
Actual Time 8:11 AM CST 5:18 PM CST
Civil Twilight 7:39 AM CST 5:51 PM CST
Nautical Twilight 7:03 AM CST 6:27 PM CST
Astronomical Twilight 6:29 AM CST 7:01 PM CST
Moon 11:16 AM CST (1/6) No Moon Set
Length of Visible Light 10h 11m
Length of Day
9h 07m
Waxing Crescent, 35% of the Moon is Illuminated
Jan 6
Waxing Crescent
Jan 7
First Quarter
Jan 15
Full
Jan 23
Last Quarter
Jan 30
New

Hourly Weather History & Observations

Time (CST) Temp. Windchill Dew Point Humidity Pressure Visibility Wind Dir Wind Speed Gust Speed Precip Events Conditions
12:53 AM -8.0 °F -34.4 °F -20.0 °F 56% 30.60 in 10.0 mi NW 24.2 mph 31.1 mph 0.00 in   Overcast
1:53 AM -8.0 °F -36.6 °F -18.0 °F 61% 30.58 in 6.0 mi NW 29.9 mph 34.5 mph 0.00 in Snow Light Snow
2:53 AM -8.0 °F -32.2 °F -18.0 °F 61% 30.59 in 10.0 mi NW 19.6 mph 31.1 mph 0.00 in   Clear
3:53 AM -7.1 °F -30.4 °F -18.0 °F 59% 30.58 in 10.0 mi NW 18.4 mph 26.5 mph N/A   Mostly Cloudy
4:53 AM -7.1 °F -32.1 °F -18.0 °F 59% 30.56 in 9.0 mi NW 21.9 mph 29.9 mph 0.00 in Snow Light Snow
5:53 AM -6.0 °F -29.6 °F -16.1 °F 62% 30.57 in 10.0 mi NW 19.6 mph 26.5 mph 0.00 in   Overcast
6:53 AM -8.0 °F -32.2 °F -18.0 °F 61% 30.59 in 10.0 mi NW 19.6 mph 26.5 mph N/A   Clear
7:53 AM -9.0 °F -29.3 °F -18.0 °F 65% 30.59 in 10.0 mi NW 12.7 mph - N/A   Clear
8:53 AM -9.0 °F -33.0 °F -18.0 °F 65% 30.59 in 10.0 mi NW 18.4 mph - N/A   Clear
9:53 AM -6.0 °F -28.4 °F -17.0 °F 59% 30.59 in 10.0 mi NW 17.3 mph 23.0 mph N/A   Clear
10:53 AM -4.0 °F -27.0 °F -16.1 °F 56% 30.59 in 10.0 mi NW 19.6 mph - N/A   Clear
11:53 AM -2.0 °F -23.9 °F -15.0 °F 54% 30.55 in 10.0 mi WNW 18.4 mph 28.8 mph N/A   Clear
12:53 PM 1.0 °F -20.4 °F -13.0 °F 52% 30.50 in 10.0 mi WNW 19.6 mph 25.3 mph N/A   Clear
1:53 PM 3.9 °F -18.5 °F -11.0 °F 50% 30.47 in 10.0 mi WNW 24.2 mph 29.9 mph N/A   Clear
2:53 PM 6.1 °F -12.8 °F -9.9 °F 48% 30.45 in 10.0 mi NW 17.3 mph - N/A   Clear
3:53 PM 7.0 °F -11.6 °F -9.0 °F 48% 30.44 in 10.0 mi WNW 17.3 mph - N/A   Clear
4:53 PM 5.0 °F -9.1 °F -9.0 °F 52% 30.41 in 10.0 mi NW 9.2 mph - N/A   Clear
5:53 PM 1.9 °F -5.6 °F -9.0 °F 60% 30.38 in 10.0 mi North 3.5 mph - N/A   Clear
6:53 PM 1.0 °F - -9.0 °F 63% 30.37 in 10.0 mi Calm Calm - N/A   Clear
7:53 PM 3.9 °F - -6.0 °F 64% 30.35 in 10.0 mi Calm Calm - N/A   Clear
8:53 PM 3.0 °F -6.4 °F -5.1 °F 69% 30.31 in 10.0 mi SE 4.6 mph - N/A   Mostly Cloudy
9:53 PM 3.9 °F -5.3 °F -5.1 °F 66% 30.28 in 10.0 mi SSE 4.6 mph - N/A   Scattered Clouds
10:53 PM 7.0 °F -3.3 °F -4.0 °F 61% 30.23 in 10.0 mi SSE 5.8 mph - N/A   Overcast
11:53 PM 8.1 °F -5.3 °F -4.0 °F 58% 30.19 in 10.0 mi SE 9.2 mph - N/A   Overcast